TAP033 LGSM-LGKR

Flight info

Callsign TAP033
Flight time 1h 4m
Altitude 32000
Route LARKI DCT RIPLI UL995 VARDI
Aircraft A321/M-SDE3FGHIRWY/LB1

Departure

Time 2026-05-04 17:40
Airport Samos Airport (LGSM)

Arrival

Time 2026-05-04 18:44
Airport Corfu Ioannis Kapodistrias International Airport (LGKR)
Time Latitude Longitude Altitude Speed Heading
2026-05-04 17:25 37.69063 26.91225 21 ft 0 kts
2026-05-04 17:33 37.69042 26.91224 23 ft 4 kts
2026-05-04 17:34 37.69008 26.91185 25 ft 1 kts 95°
2026-05-04 17:36 37.69006 26.91206 24 ft 3 kts 95°
2026-05-04 17:36 37.69002 26.91261 21 ft 10 kts 95°
2026-05-04 17:36 37.68995 26.91376 22 ft 14 kts 93°
2026-05-04 17:37 37.69001 26.91513 22 ft 16 kts 102°
2026-05-04 17:37 37.68979 26.91644 24 ft 15 kts 110°
2026-05-04 17:37 37.68907 26.91709 21 ft 12 kts 141°
2026-05-04 17:37 37.68878 26.91837 21 ft 23 kts 93°
2026-05-04 17:38 37.68863 26.92086 23 ft 29 kts 95°
2026-05-04 17:38 37.68853 26.92259 22 ft 8 kts 94°
2026-05-04 17:38 37.68847 26.92331 22 ft 8 kts 104°
2026-05-04 17:38 37.68825 26.92381 22 ft 7 kts 114°
2026-05-04 17:39 37.68847 26.92397 22 ft 0 kts 268°
2026-05-04 17:39 37.68846 26.92394 22 ft 0 kts 268°
2026-05-04 17:39 37.68848 26.92356 21 ft 15 kts 272°
2026-05-04 17:40 37.68875 26.91906 19 ft 90 kts 274°
2026-05-04 17:40 37.68937 26.90847 36 ft 148 kts 276°
2026-05-04 17:40 37.69002 26.89473 492 ft 163 kts 276°
2026-05-04 17:40 37.68755 26.88044 1290 ft 174 kts 245°
2026-05-04 17:41 37.67827 26.86982 1711 ft 196 kts 207°
2026-05-04 17:41 37.66418 26.86769 1950 ft 218 kts 169°
2026-05-04 17:41 37.65050 26.87654 2173 ft 234 kts 135°
2026-05-04 17:41 37.63861 26.89144 2400 ft 251 kts 129°
2026-05-04 17:42 37.62465 26.90643 2666 ft 277 kts 155°
2026-05-04 17:42 37.60564 26.91153 3318 ft 284 kts 178°
2026-05-04 17:42 37.58579 26.91257 4112 ft 286 kts 177°
2026-05-04 17:42 37.56586 26.91411 4942 ft 288 kts 180°
2026-05-04 17:43 37.54628 26.90917 5694 ft 290 kts 206°
2026-05-04 17:43 37.52995 26.89473 6451 ft 287 kts 231°
2026-05-04 17:43 37.51963 26.87364 7176 ft 281 kts 255°
2026-05-04 17:43 37.51669 26.84977 7904 ft 274 kts 277°
2026-05-04 17:44 37.52072 26.82658 8650 ft 270 kts 291°
2026-05-04 17:44 37.52656 26.80402 9388 ft 272 kts 291°
2026-05-04 17:44 37.53239 26.78133 10114 ft 273 kts 291°
2026-05-04 17:44 37.53839 26.75803 10413 ft 290 kts 291°
2026-05-04 17:45 37.54484 26.73300 10543 ft 311 kts 291°
2026-05-04 17:45 37.55161 26.70649 10842 ft 323 kts 291°
2026-05-04 17:45 37.55851 26.67929 11384 ft 328 kts 291°
2026-05-04 17:45 37.56545 26.65178 11983 ft 331 kts 291°
2026-05-04 17:46 37.57246 26.62395 12577 ft 335 kts 291°
2026-05-04 17:46 37.57952 26.59581 13168 ft 338 kts 291°
2026-05-04 17:46 37.58656 26.56776 13748 ft 342 kts 291°
2026-05-04 17:46 37.59380 26.53903 14279 ft 345 kts 292°
2026-05-04 17:47 37.60109 26.51008 14810 ft 347 kts 292°
2026-05-04 17:47 37.60839 26.48102 15347 ft 349 kts 292°
2026-05-04 17:47 37.61578 26.45167 15889 ft 351 kts 292°
2026-05-04 17:47 37.62319 26.42223 16417 ft 353 kts 292°
2026-05-04 17:48 37.63063 26.39258 16949 ft 355 kts 292°
2026-05-04 17:48 37.63806 26.36280 17468 ft 357 kts 292°
2026-05-04 17:48 37.64554 26.33276 17974 ft 360 kts 292°
2026-05-04 17:48 37.65305 26.30254 18456 ft 362 kts 292°
2026-05-04 17:49 37.66059 26.27216 18879 ft 365 kts 292°
2026-05-04 17:49 37.66822 26.24149 19286 ft 367 kts 292°
2026-05-04 17:49 37.67591 26.21062 19665 ft 370 kts 292°
2026-05-04 17:49 37.68365 26.17951 20031 ft 373 kts 292°
2026-05-04 17:50 37.69143 26.14816 20391 ft 376 kts 292°
2026-05-04 17:50 37.69927 26.11657 20740 ft 378 kts 291°
2026-05-04 17:50 37.70714 26.08478 21085 ft 381 kts 291°
2026-05-04 17:50 37.71503 26.05272 21423 ft 383 kts 291°
2026-05-04 17:51 37.72298 26.02047 21777 ft 386 kts 291°
2026-05-04 17:51 37.73101 25.98797 22104 ft 389 kts 291°
2026-05-04 17:51 37.73896 25.95572 22449 ft 391 kts 291°
2026-05-04 17:51 37.74705 25.92280 22782 ft 394 kts 291°
2026-05-04 17:52 37.75518 25.88961 23125 ft 396 kts 291°
2026-05-04 17:52 37.76338 25.85623 23461 ft 399 kts 291°
2026-05-04 17:52 37.77160 25.82265 23782 ft 402 kts 291°
2026-05-04 17:52 37.77987 25.78882 24066 ft 404 kts 291°
2026-05-04 17:53 37.78821 25.75472 24339 ft 407 kts 291°
2026-05-04 17:53 37.79658 25.72044 24621 ft 409 kts 291°
2026-05-04 17:53 37.80496 25.68597 24905 ft 412 kts 291°
2026-05-04 17:53 37.81335 25.65125 25180 ft 414 kts 291°
2026-05-04 17:54 37.82181 25.61628 25466 ft 417 kts 290°
2026-05-04 17:54 37.83032 25.58111 25747 ft 419 kts 290°
2026-05-04 17:54 37.83885 25.54578 26012 ft 422 kts 290°
2026-05-04 17:54 37.84732 25.51009 26275 ft 425 kts 290°
2026-05-04 17:55 37.85574 25.47414 26549 ft 427 kts 290°
2026-05-04 17:55 37.86415 25.43798 26808 ft 429 kts 290°
2026-05-04 17:55 37.87258 25.40164 27070 ft 432 kts 290°
2026-05-04 17:55 37.88106 25.36510 27332 ft 434 kts 290°
2026-05-04 17:56 37.88948 25.32884 27591 ft 436 kts 289°
2026-05-04 17:56 37.89805 25.29189 27849 ft 438 kts 289°
2026-05-04 17:56 37.90668 25.25477 28104 ft 441 kts 289°
2026-05-04 17:56 37.91537 25.21745 28357 ft 443 kts 289°
2026-05-04 17:57 37.92406 25.17999 28621 ft 445 kts 289°
2026-05-04 17:57 37.93279 25.14228 28863 ft 447 kts 289°
2026-05-04 17:57 37.94153 25.10446 29109 ft 449 kts 289°
2026-05-04 17:57 37.95034 25.06643 29352 ft 451 kts 289°
2026-05-04 17:58 37.95915 25.02820 29583 ft 453 kts 289°
2026-05-04 17:58 37.96796 24.98975 29811 ft 455 kts 288°
2026-05-04 17:58 37.97673 24.95128 30014 ft 456 kts 288°
2026-05-04 17:58 37.98558 24.91254 30236 ft 458 kts 288°
2026-05-04 17:59 37.99444 24.87376 30424 ft 459 kts 288°
2026-05-04 17:59 38.00332 24.83487 30615 ft 459 kts 288°
2026-05-04 17:59 38.02104 24.75733 31155 ft 456 kts 288°
2026-05-04 18:00 38.02984 24.71879 31467 ft 454 kts 288°
2026-05-04 18:00 38.03853 24.68045 31780 ft 451 kts 288°
2026-05-04 18:00 38.04717 24.64225 32062 ft 450 kts 288°
2026-05-04 18:01 38.06392 24.56782 32126 ft 433 kts 288°
2026-05-04 18:01 38.08028 24.49471 32121 ft 429 kts 288°
2026-05-04 18:02 38.10481 24.38553 32137 ft 428 kts 288°
2026-05-04 18:02 38.12111 24.31286 32138 ft 428 kts 288°
2026-05-04 18:03 38.13727 24.24017 32127 ft 427 kts 288°
2026-05-04 18:03 38.15332 24.16754 32139 ft 427 kts 288°
2026-05-04 18:04 38.16933 24.09496 32142 ft 426 kts 288°
2026-05-04 18:05 38.19326 23.98639 32146 ft 425 kts 288°
2026-05-04 18:05 38.20909 23.91417 32147 ft 424 kts 288°
2026-05-04 18:06 38.23270 23.80614 32155 ft 422 kts 288°
2026-05-04 18:06 38.24838 23.73440 32154 ft 420 kts 288°
2026-05-04 18:07 38.26387 23.66285 32160 ft 419 kts 288°
2026-05-04 18:07 38.27925 23.59163 32156 ft 417 kts 289°
2026-05-04 18:08 38.29450 23.52107 32156 ft 415 kts 289°
2026-05-04 18:08 38.30970 23.45032 32157 ft 414 kts 289°
2026-05-04 18:09 38.33977 23.30943 32158 ft 411 kts 289°
2026-05-04 18:10 38.35463 23.23934 32158 ft 409 kts 289°
2026-05-04 18:10 38.36945 23.16952 32154 ft 407 kts 289°
2026-05-04 18:11 38.38419 23.09990 32153 ft 406 kts 289°
2026-05-04 18:11 38.39879 23.03043 32154 ft 405 kts 290°
2026-05-04 18:12 38.41324 22.96111 32154 ft 404 kts 290°
2026-05-04 18:12 38.42762 22.89200 32153 ft 403 kts 290°
2026-05-04 18:13 38.44199 22.82306 32149 ft 402 kts 290°
2026-05-04 18:14 38.46325 22.72038 32152 ft 400 kts 290°
2026-05-04 18:14 38.47740 22.65174 32148 ft 399 kts 290°
2026-05-04 18:15 38.50546 22.51507 32142 ft 397 kts 290°
2026-05-04 18:16 38.51941 22.44683 32142 ft 397 kts 290°
2026-05-04 18:16 38.53324 22.37859 32136 ft 396 kts 290°
2026-05-04 18:17 38.55399 22.27638 32133 ft 396 kts 290°
2026-05-04 18:18 38.57700 22.17547 32133 ft 389 kts 300°
2026-05-04 18:18 38.60247 22.11488 32133 ft 387 kts 303°
2026-05-04 18:19 38.64101 22.02420 32131 ft 387 kts 303°
2026-05-04 18:19 38.66673 21.96352 32136 ft 388 kts 303°
2026-05-04 18:20 38.69224 21.90327 32138 ft 388 kts 303°
2026-05-04 18:20 38.71819 21.84215 32028 ft 389 kts 303°
2026-05-04 18:21 38.73100 21.81196 31598 ft 384 kts 303°
2026-05-04 18:21 38.74365 21.78209 31124 ft 379 kts 303°
2026-05-04 18:21 38.75615 21.75252 30664 ft 375 kts 303°
2026-05-04 18:21 38.76850 21.72326 30195 ft 371 kts 303°
2026-05-04 18:22 38.78069 21.69435 29708 ft 366 kts 303°
2026-05-04 18:22 38.79248 21.66622 29274 ft 361 kts 303°
2026-05-04 18:22 38.80442 21.63777 28833 ft 354 kts 303°
2026-05-04 18:22 38.81585 21.61050 28405 ft 348 kts 303°
2026-05-04 18:23 38.82715 21.58349 28000 ft 340 kts 303°
2026-05-04 18:23 38.83823 21.55704 27586 ft 334 kts 303°
2026-05-04 18:23 38.84923 21.53088 27197 ft 332 kts 303°
2026-05-04 18:23 38.86016 21.50481 26811 ft 331 kts 303°
2026-05-04 18:24 38.87100 21.47892 26425 ft 329 kts 303°
2026-05-04 18:24 38.88184 21.45305 26055 ft 328 kts 302°
2026-05-04 18:24 38.89258 21.42731 25693 ft 326 kts 303°
2026-05-04 18:24 38.90328 21.40168 25317 ft 324 kts 303°
2026-05-04 18:25 38.91391 21.37624 24960 ft 323 kts 303°
2026-05-04 18:25 38.92450 21.35089 24600 ft 322 kts 303°
2026-05-04 18:25 38.93501 21.32562 24238 ft 320 kts 303°
2026-05-04 18:25 38.94546 21.30046 23876 ft 318 kts 303°
2026-05-04 18:26 38.95586 21.27543 23470 ft 317 kts 303°
2026-05-04 18:26 38.96625 21.25053 23096 ft 316 kts 303°
2026-05-04 18:26 38.97661 21.22571 22730 ft 314 kts 303°
2026-05-04 18:26 38.98688 21.20104 22355 ft 313 kts 303°
2026-05-04 18:27 38.99707 21.17640 21982 ft 311 kts 302°
2026-05-04 18:27 39.00718 21.15188 21630 ft 310 kts 303°
2026-05-04 18:27 39.01726 21.12747 21252 ft 308 kts 303°
2026-05-04 18:27 39.02732 21.10321 20888 ft 307 kts 303°
2026-05-04 18:28 39.03395 21.08720 20641 ft 306 kts 303°
2026-05-04 18:28 39.04391 21.06312 20272 ft 304 kts 303°
2026-05-04 18:28 39.05699 21.03135 19785 ft 303 kts 302°
2026-05-04 18:28 39.06679 21.00747 19415 ft 301 kts 302°
2026-05-04 18:29 39.07658 20.98370 19055 ft 300 kts 303°
2026-05-04 18:29 39.08318 20.96772 18806 ft 299 kts 303°
2026-05-04 18:29 39.09291 20.94411 18437 ft 298 kts 303°
2026-05-04 18:29 39.10259 20.92065 18049 ft 296 kts 302°
2026-05-04 18:30 39.12165 20.87421 17328 ft 294 kts 302°
2026-05-04 18:30 39.13117 20.85094 16989 ft 293 kts 302°
2026-05-04 18:30 39.14068 20.82776 16638 ft 292 kts 302°
2026-05-04 18:31 39.15014 20.80471 16292 ft 291 kts 302°
2026-05-04 18:31 39.15959 20.78170 15946 ft 290 kts 302°
2026-05-04 18:31 39.16896 20.75880 15607 ft 288 kts 302°
2026-05-04 18:31 39.17827 20.73595 15259 ft 287 kts 302°
2026-05-04 18:32 39.18754 20.71318 14923 ft 286 kts 302°
2026-05-04 18:32 39.19680 20.69052 14578 ft 285 kts 302°
2026-05-04 18:32 39.20602 20.66794 14240 ft 284 kts 302°
2026-05-04 18:32 39.21523 20.64539 13892 ft 284 kts 302°
2026-05-04 18:33 39.22440 20.62285 13523 ft 283 kts 302°
2026-05-04 18:33 39.23353 20.60034 13169 ft 283 kts 302°
2026-05-04 18:33 39.24262 20.57788 12819 ft 283 kts 302°
2026-05-04 18:33 39.25174 20.55544 12473 ft 282 kts 302°
2026-05-04 18:34 39.26086 20.53300 12118 ft 282 kts 301°
2026-05-04 18:34 39.26995 20.51055 11757 ft 282 kts 301°
2026-05-04 18:34 39.27891 20.48841 11410 ft 282 kts 301°
2026-05-04 18:34 39.28801 20.46597 11054 ft 282 kts 301°
2026-05-04 18:35 39.29711 20.44357 10696 ft 282 kts 301°
2026-05-04 18:35 39.30619 20.42113 10383 ft 280 kts 300°
2026-05-04 18:35 39.31522 20.39875 10309 ft 282 kts 300°
2026-05-04 18:35 39.32429 20.37630 10192 ft 283 kts 300°
2026-05-04 18:36 39.33328 20.35368 9940 ft 285 kts 300°
2026-05-04 18:36 39.34222 20.33083 9488 ft 284 kts 299°
2026-05-04 18:36 39.35109 20.30798 8981 ft 284 kts 299°
2026-05-04 18:36 39.35991 20.28530 8566 ft 281 kts 299°
2026-05-04 18:37 39.36863 20.26291 8191 ft 278 kts 299°
2026-05-04 18:37 39.37729 20.24064 7801 ft 277 kts 299°
2026-05-04 18:37 39.38594 20.21847 7424 ft 276 kts 298°
2026-05-04 18:37 39.39452 20.19644 7054 ft 273 kts 298°
2026-05-04 18:38 39.40292 20.17502 6695 ft 271 kts 298°
2026-05-04 18:38 39.41149 20.15348 6300 ft 268 kts 298°
2026-05-04 18:38 39.42002 20.13217 5925 ft 265 kts 298°
2026-05-04 18:38 39.42848 20.11112 5560 ft 262 kts 298°
2026-05-04 18:39 39.43682 20.09029 5192 ft 259 kts 297°
2026-05-04 18:39 39.44179 20.06838 4845 ft 258 kts 275°
2026-05-04 18:39 39.44027 20.04548 4478 ft 255 kts 261°
2026-05-04 18:39 39.43717 20.02304 4118 ft 249 kts 261°
2026-05-04 18:40 39.43422 20.00148 3823 ft 239 kts 261°
2026-05-04 18:40 39.43162 19.98064 3541 ft 230 kts 267°
2026-05-04 18:40 39.43556 19.96158 3287 ft 220 kts 308°
2026-05-04 18:40 39.44763 19.95099 3079 ft 206 kts 340°
2026-05-04 18:41 39.46085 19.94688 2943 ft 185 kts 349°
2026-05-04 18:41 39.47317 19.94417 2687 ft 173 kts 349°
2026-05-04 18:41 39.48453 19.94145 2395 ft 161 kts 348°
2026-05-04 18:41 39.49534 19.93916 2107 ft 154 kts 350°
2026-05-04 18:42 39.50569 19.93682 1874 ft 149 kts 348°
2026-05-04 18:42 39.51576 19.93433 1638 ft 147 kts 349°
2026-05-04 18:42 39.52578 19.93211 1471 ft 146 kts 348°
2026-05-04 18:42 39.53572 19.92948 1268 ft 145 kts 346°
2026-05-04 18:43 39.54564 19.92701 1057 ft 145 kts 347°
2026-05-04 18:43 39.55555 19.92443 889 ft 145 kts 346°
2026-05-04 18:43 39.56544 19.92150 646 ft 146 kts 346°
2026-05-04 18:43 39.57539 19.91900 421 ft 145 kts 350°
2026-05-04 18:44 39.58529 19.91650 229 ft 145 kts 348°
2026-05-04 18:44 39.59185 19.91468 51 ft 145 kts 349°
2026-05-04 18:44 39.60220 19.91208 21 ft 60 kts 348°
2026-05-04 18:44 39.60500 19.91132 21 ft 36 kts 348°
2026-05-04 18:45 39.60740 19.91067 19 ft 34 kts 348°
2026-05-04 18:45 39.60935 19.91020 19 ft 21 kts 349°
2026-05-04 18:45 39.61026 19.91035 20 ft 12 kts 43°
2026-05-04 18:45 39.61051 19.91097 19 ft 4 kts 107°
2026-05-04 18:46 39.61019 19.91130 19 ft 10 kts 153°
2026-05-04 18:46 39.60952 19.91160 19 ft 10 kts 170°
2026-05-04 18:46 39.60883 19.91173 18 ft 11 kts 171°
2026-05-04 18:46 39.60810 19.91189 21 ft 10 kts 168°
2026-05-04 18:47 39.60743 19.91207 18 ft 10 kts 169°
2026-05-04 18:47 39.60697 19.91224 19 ft 3 kts 128°
2026-05-04 18:47 39.60694 19.91267 18 ft 6 kts 82°
2026-05-04 18:47 39.60700 19.91311 18 ft 4 kts 79°
2026-05-04 18:48 39.60705 19.91344 18 ft 3 kts 79°
2026-05-04 18:48 39.60706 19.91354 18 ft 0 kts 79°
2026-05-04 18:48 39.60707 19.91358 18 ft 0 kts 79°